Volver al catálogo

COSMOS 1081

ActivoMilitarLEO
NORAD 11296·PAYLOAD·🇷🇺 Russia

Lanzado Mar 15, 1979 desde Plesetsk Cosmodrome

Loading…

Próximos Pases (próximas 24 horas)

TLE

ActualizadoSource: Space-Track

Época: Sep 14, 2026, 01:00 UTC

1 11296U 79024A   26257.04219917 -.00000021  00000-0 -28233-4 0  9993
2 11296  74.0302 265.0651 0040182 291.5550  97.6604 12.57294776180094

Sigue COSMOS 1081 en tiempo real con AllMySat

Download on the App Store